Date,TemperatureHighF,TemperatureAvgF,TemperatureLowF,DewpointHighF,DewpointAvgF,DewpointLowF,HumidityHigh,HumidityAvg,HumidityLow,PressureMaxIn,PressureMinIn,WindSpeedMaxMPH,WindSpeedAvgMPH,GustSpeedMaxMPH,PrecipitationSumIn
2014-1-1,64.9,48.3,35.8,51.2,38.5,27.8,84,70,52,16.40,16.40,22,6,25,0.00
2014-1-2,44.4,33.1,25.2,27.8,21.3,18.5,80,63,40,16.40,16.40,11,2,17,0.00
2014-1-3,45.8,29.5,24.1,29.1,22.2,19.9,85,75,51,26.46,18.28,16,2,16,0.00
2014-1-4,41.5,38.9,36.9,35.0,31.4,27.8,90,75,58,29.69,29.69,7,5,18,0.00
2014-1-5,57.4,32.9,21.3,52.9,20.6,8.8,86,61,46,28.64,28.64,17,4,20,0.00
2014-1-6,33.9,23.2,14.3,14.9,7.7,3.8,70,52,32,28.64,23.03,11,1,13,0.00
2014-1-7,46.0,34.5,23.3,19.9,16.0,13.2,66,48,30,26.10,21.92,19,5,19,0.00
2014-1-8,46.4,41.9,37.9,45.0,36.9,19.8,96,84,46,32.34,26.10,14,4,19,0.04
2014-1-9,46.1,41.8,38.1,45.3,40.9,37.1,97,96,95,32.28,17.72,9,2,10,0.08
2014-1-10,64.7,57.7,45.1,62.3,55.8,42.1,98,93,76,31.09,17.72,14,3,16,0.14
2014-1-11,67.6,52.0,40.8,42.6,36.7,31.2,94,61,28,32.42,26.15,6,1,11,0.00
2014-1-12,69.0,57.8,47.4,56.1,40.4,31.5,82,54,29,32.42,18.19,25,9,31,0.00
2014-1-13,64.6,56.1,40.9,57.5,37.3,24.7,91,53,26,30.24,18.19,17,3,24,0.00
2014-1-14,66.7,50.2,40.7,38.5,29.3,23.9,61,46,22,29.83,17.57,10,1,15,0.00
2014-1-15,56.3,45.6,34.0,28.6,26.1,22.9,66,47,32,30.20,17.57,11,1,11,0.00
2014-1-16,43.9,41.4,39.9,33.5,30.3,28.2,72,64,54,30.20,30.20,10,5,12,0.00
2014-1-17,55.4,45.8,36.2,23.1,18.5,13.7,57,35,19,23.72,20.51,7,1,16,0.00
2014-1-18,67.9,51.8,39.4,33.6,28.5,19.7,59,42,25,32.34,23.72,15,4,17,0.00
2014-1-19,62.9,49.6,30.9,33.3,29.5,25.5,82,48,27,27.98,16.68,9,2,13,0.00
2014-1-20,74.1,57.0,46.6,43.1,36.2,27.8,63,47,31,16.68,16.68,13,4,15,0.00
2014-1-21,53.4,43.4,34.3,28.2,19.3,11.1,55,39,23,26.03,16.68,11,1,12,0.00
2014-1-22,59.7,44.1,30.4,31.4,25.0,18.2,63,48,33,18.98,18.98,9,2,11,0.00
2014-1-23,43.6,33.2,23.7,25.6,13.1,1.6,56,43,34,25.66,18.98,14,4,18,0.00
2014-1-24,40.8,29.7,17.7,21.4,8.9,1.7,62,42,25,26.22,25.66,12,3,16,0.00
2014-1-25,67.9,47.3,30.2,35.2,28.5,20.1,77,51,28,32.30,19.77,12,2,14,0.00
2014-1-26,71.2,56.4,45.6,40.7,37.9,32.9,72,51,31,19.77,16.68,14,3,17,0.00
2014-1-27,47.9,36.5,25.1,37.8,13.0,-0.9,82,40,22,27.05,17.81,14,4,22,0.00
2014-1-28,36.0,27.5,20.9,17.6,8.5,1.4,71,45,32,27.05,26.44,13,2,15,0.00
2014-1-29,40.2,21.6,15.3,19.8,13.6,10.0,86,73,34,26.44,26.44,9,1,14,0.00
2014-1-30,55.6,43.2,31.4,45.4,31.3,16.5,87,63,50,0.00,40.00,16,8,33,0.00
2014-1-31,72.4,65.2,49.7,59.9,55.2,46.0,90,71,53,32.31,18.20,21,8,22,0.00